Location: ?
(35.4554°N, 139.3092°E)
Time: 22:00:23
(UTC+00:00)

X-37B - Pass Details

Date: 21 April 2021
Orbit: 386 x 389 km, 45.0° (Epoch: 08 May)

Event Time Altitude Azimuth Distance (km) Brightness Sun altitude
Exits shadow 17:23:48 13° 26° (NNE) 1,239 3.9 -28.9°
Drops below altitude 10° 17:24:26 10° 35° (NE) 1,414 4.3 -28.8°
Sets 17:26:53 0° 54° (NE) 2,269 5.7 -28.4°
